Sivas, Turkey

5:16 PM +03 on July 24, 2017 (GMT +0300)
Sivas

Weather History for LTAR - July, 2013

Change the Weather History Date:

Wednesday, July 24, 2013

  Actual Average Record
Temperature  
Mean Temperature 66 °F -  
Max Temperature 82 °F 82 °F - ()
Min Temperature 49 °F 52 °F - ()
Growing Degree Days 16 (Base 50)    
Moisture  
Dew Point 44 °F    
Average Humidity 58    
Maximum Humidity 93    
Minimum Humidity 11    
Precipitation  
Precipitation 0.00 in 0.01 in - ()
Sea Level Pressure  
Sea Level Pressure 30.04 in    
Wind  
Wind Speed 8 mph ()    
Max Wind Speed 23 mph    
Max Gust Speed 25 mph    
Visibility 9.0 miles    
Events      
T = Trace of Precipitation, MM = Missing Value Source: Averaged Metar Reports

Daily Weather History Graph

Daily Weather History Graph

Search for Another Location

Airport or City:

Trip Planner

Search our weather history database for the weather conditions in past years. The results will help you decide how hot, cold, wet, or windy it might be!

Date:

Astronomy

Jul. 24, 2013 Rise Set
Actual Time 5:24 AM EEST 7:53 PM EEST
Civil Twilight 4:53 AM EEST 8:24 PM EEST
Nautical Twilight 4:14 AM EEST 9:02 PM EEST
Astronomical Twilight 3:31 AM EEST 9:45 PM EEST
Moon 8:46 PM EEST 7:18 AM EEST
Length of Visible Light 15h 31m
Length of Day
14h 29m
Waning Gibbous, 96% of the Moon is Illuminated
Jul 24
Waning Gibbous
Jul 29
Last Quarter
Aug 7
New
Aug 14
First Quarter
Aug 21
Full

Hourly Weather History & Observations

Time (EEST) Temp. Windchill Dew Point Humidity Pressure Visibility Wind Dir Wind Speed Gust Speed Precip Events Conditions
12:50 AM 46.4 °F 42.9 °F 44.6 °F 93% 30.04 in - NNW 6.9 mph - N/A   Clear
1:50 AM 46.4 °F 43.5 °F 42.8 °F 87% 30.04 in - NNW 5.8 mph - N/A   Clear
2:50 AM 46.4 °F 44.3 °F 42.8 °F 87% 30.04 in - NNW 4.6 mph - N/A   Clear
3:00 AM 53 °F - 45 °F 66%  in 9 mi Calm Calm - -  
4:50 AM 44.6 °F 41.4 °F 42.8 °F 93% 30.04 in - NNW 5.8 mph - N/A   Clear
5:50 AM 46.4 °F 42.9 °F 42.8 °F 87% 30.04 in - NW 6.9 mph - N/A   Clear
6:50 AM 48.2 °F - 44.6 °F 87% 30.04 in - NNW 10.4 mph - N/A   Clear
7:50 AM 51.8 °F - 44.6 °F 76% 30.04 in - NNW 8.1 mph - N/A   Clear
8:50 AM 57.2 °F - 44.6 °F 63% 30.06 in - NNW 5.8 mph - N/A   Clear
9:00 AM 64 °F - 46 °F 42%  in 9 mi ESE 2.3 mph - -  
9:50 AM 60.8 °F - 44.6 °F 55% 30.04 in - NNW 5.8 mph - N/A   Clear
10:50 AM 64.4 °F - 44.6 °F 49% 30.04 in - NNW 6.9 mph - N/A   Clear
11:50 AM 68.0 °F - 42.8 °F 40% 30.04 in - NNW 9.2 mph 25.3 mph N/A   Clear
12:50 PM 69.8 °F - 41.0 °F 35% 30.04 in - North 10.4 mph - N/A   Clear
1:50 PM 71.6 °F - 39.2 °F 31% 30.04 in - NNW 11.5 mph - N/A   Clear
2:50 PM 73.4 °F - 39.2 °F 29% 30.01 in - NNW 18.4 mph - N/A   Clear
3:00 PM 82 °F - 37 °F 11%  in 9 mi North 5.8 mph - -  
3:50 PM 71.6 °F - 42.8 °F 35% 30.01 in - NNW 23.0 mph - N/A   Clear
4:50 PM 69.8 °F - 42.8 °F 38% 30.01 in - NNW 21.9 mph - N/A   Clear
5:50 PM 68.0 °F - 42.8 °F 40% 30.01 in - North 20.7 mph - N/A   Clear
6:50 PM 64.4 °F - 46.4 °F 52% 30.04 in - NNW 21.9 mph - N/A   Clear
7:50 PM 60.8 °F - 46.4 °F 59% 30.04 in - North 15.0 mph - N/A   Clear
8:50 PM 57.2 °F - 46.4 °F 67% 30.06 in - North 16.1 mph - N/A   Clear
9:00 PM 65 °F - 46 °F 38%  in 9 mi North 5.8 mph - -  
9:50 PM 55.4 °F - 46.4 °F 72% 30.06 in - NNW 13.8 mph - N/A   Clear
10:50 PM 51.8 °F - 42.8 °F 71% 30.06 in - North 10.4 mph - N/A   Clear
11:50 PM 51.8 °F - 42.8 °F 71% 30.06 in - North 9.2 mph - N/A   Clear